Regional Weather Roundup
Issued by NWS

Home | Current Version | Previous Version | Text Only | Print | Product List | Glossary On
Versions: 1 2 3 4 5 6 7 8 9 10 11 12 13 14 15 16 17 18 19 20 21 22 23 24 25 26 27 28 29 30 31 32 33 34 35 36 37 38 39 40 41 42 43 44 45 46 47 48 49 50
000
ASCA42 TJSJ 201811
RWRPR
PUERTO RICO/U.S. VIRGIN ISLANDS HOURLY WEATHER ROUNDUP
NATIONAL WEATHER SERVICE SAN JUAN PR
200 PM AST MON OCT 20 2014

PRZ001-004-201900-
PUERTO RICO

CITY           SKY/WX    TMP DP  RH WIND       PRES   REMARKS
SAN JUAN LMM   MOSUNNY   88  75  66 NE13      29.93F HX  97
MAYAGUEZ       LGT RAIN  86  75  70 SW5       29.96  HX  95
AGUADILLA      MOSUNNY   88  75  66 NE14      29.94F HX  97
CEIBA          SUNNY     88  75  66 NE12      29.95F HX  97
$$

PRZ006-007-201900-
U.S. VIRGIN ISLANDS

CITY           SKY/WX    TMP DP  RH WIND       PRES   REMARKS
CHRISTIANSTED  LGT RAIN  81  75  83 SE7       29.94F
$$

HOURLY WEATHER ROUNDUP FOR THE NEWS MEDIA

CITY           SKY/WX    TMP DP  RH WIND       PRES   REMARKS
MIAMI          PTSUNNY   82  67  60 SE10      29.98F
ORLANDO        MOSUNNY   83  63  50 S3        30.00F
NEW YORK       PTSUNNY   59  35  40 SW13      30.06F
NEWARK         PTSUNNY   59  35  40 SW7       30.04F
CHICAGO        MOSUNNY   63  46  54 VRB7      29.84F
HARTFORD       SUNNY     54  33  45 SW10G18   30.01F
BOSTON         MOSUNNY   55  31  39 SW12      29.98F
DALLAS         MOSUNNY   78  61  55 CALM      30.08F
PHILADELPHIA   PTSUNNY   62  37  39 S10G21    30.03F


USA.gov is the U.S. government's official web portal to all federal, state and local government web resources and services.